This demonstration page uses our WeatherBlox Daily Observations layout. Learn more.

Left ArrowRight Arrow

47.50024, -111.30081

Hourly Observations for January 30, 2022

Temp ( °F °C ) Dew Point ( °F °C ) Humidity (%) Winds ( mph kmh ) Pressure ( in mb ) Visibility ( mi km ) Precip ( " mm )
12:53 am 00:53 Clear 44 6.7 9 -12.8 24 24 WSW 29 46 29.97 1015 10 16 0.00 0.00
1:53 am 01:53 Clear 43 6.1 8 -13.3 24 24 SW 28 44 29.96 1015 10 16 0.00 0.00
2:53 am 02:53 Clear 43 6.1 9 -12.8 25 25 SW 23 37 29.96 1015 10 16 0.00 0.00
3:53 am 03:53 Clear 42 5.6 10 -12.2 27 27 SW 17 28 29.97 1015 10 16 0.00 0.00
4:53 am 04:53 Clear 43 6.1 9 -12.8 25 25 SW 25 41 29.98 1015 10 16 0.00 0.00
5:53 am 05:53 Clear 43 6.1 9 -12.8 25 25 SW 20 31 29.98 1015 10 16 0.00 0.00
6:53 am 06:53 Partly Cloudy 43 6.1 10 -12.2 26 26 WSW 15 24 29.99 1016 10 16 0.00 0.00
7:53 am 07:53 Clear 43 6.1 10 -12.2 26 26 WSW 20 31 29.99 1016 10 16 0.00 0.00
8:53 am 08:53 Sunny 44 6.7 10 -12.2 25 25 SW 18 30 29.99 1016 10 16 0.00 0.00
9:53 am 09:53 Sunny 44 6.7 9 -12.8 24 24 SW 23 37 29.98 1015 10 16 0.00 0.00
10:53 am 10:53 Sunny 45 7.2 9 -12.8 23 23 SW 30 48 29.95 1014 10 16 0.00 0.00
11:53 am 11:53 Sunny 47 8.3 10 -12.2 22 22 SW 29 46 29.95 1014 10 16 0.00 0.00
12:53 pm 12:53 Partly Cloudy 49 9.4 11 -11.7 21 21 SW 24 39 29.90 1013 10 16 0.00 0.00
1:53 pm 13:53 Sunny 48 8.9 13 -10.6 24 24 SW 20 31 29.90 1013 10 16 0.00 0.00
2:53 pm 14:53 Sunny 48 8.9 15 -9.4 27 27 SW 21 33 29.88 1012 10 16 0.00 0.00
3:53 pm 15:53 Sunny 47 8.3 16 -8.9 29 29 SW 17 28 29.88 1012 10 16 0.00 0.00
4:53 pm 16:53 Sunny 46 7.8 17 -8.3 31 31 SW 26 43 29.87 1012 10 16 0.00 0.00
5:53 pm 17:53 Clear 45 7.2 18 -7.8 34 34 SW 26 43 29.88 1012 10 16 0.00 0.00
6:53 pm 18:53 Mostly Clear 44 6.7 20 -6.7 38 38 SSW 21 33 29.85 1011 10 16 0.00 0.00
7:53 pm 19:53 Mostly Clear 45 7.2 21 -6.1 39 39 SSW 22 35 29.81 1010 10 16 0.00 0.00
8:53 pm 20:53 Clear 42 5.6 20 -6.7 41 41 SSW 18 30 29.77 1008 10 16 0.00 0.00
9:53 pm 21:53 Clear 43 6.1 19 -7.2 38 38 S 14 22 29.73 1007 10 16 0.00 0.00
10:53 pm 22:53 Clear 43 6.1 19 -7.2 38 38 SW 16 26 29.70 1006 10 16 0.00 0.00
11:53 pm 23:53 Clear 43 6.1 17 -8.3 35 35 SW 14 22 29.67 1005 10 16 0.00 0.00

Powered by AerisWeather